Regional Weather Roundup
Issued by NWS

Home | Current Version | Previous Version | Graphics & Text | Print | Product List | Glossary On
Versions: 1 2 3 4 5 6 7 8 9 10 11 12 13 14 15 16 17 18 19 20 21 22 23 24 25 26 27 28 29 30 31 32 33 34 35 36 37 38 39 40 41 42 43 44 45 46 47 48 49 50
000
ASUS43 KDMX 210106
RWRIA

WEATHER ROUNDUP FOR IOWA
NATIONAL WEATHER SERVICE DES MOINES IA
700 PM CST MON NOV 20 2017

NOTE: "FAIR" INDICATES FEW OR NO CLOUDS BELOW 12,000 FEET WITH NO
SIGNIFICANT WEATHER AND/OR OBSTRUCTIONS TO VISIBILITY.

* - THESE STATIONS ARE NOT NWS STATIONS...THUS NOT UNDER NWS
QUALITY CONTROL.  THEY ALSO DO NOT REPORT WEATHER SUCH
AS PRECIPITATION OR FOG.

IAZ001>003-012>014-020>022-031>034-043>046-210200-
   NORTHWEST IOWA

CITY           SKY/WX    TMP DP  RH WIND       PRES   REMARKS
CARROLL *      CLOUDY    50  28  43 SW16      29.60F
CHEROKEE *     PTCLDY    42  29  58 S6        29.60S
DENISON *      CLOUDY    46  28  49 SW5       29.64S
LE MARS *      CLOUDY    39  28  65 S6        29.60R WCI  35
ORANGE CITY *  CLOUDY    43  30  61 SW7       29.59S
SHELDON *      CLOUDY    41  27  56 SW7       29.56S
SIOUX CITY     PTCLDY    36  27  69 S3        29.62R
SPENCER        PTCLDY    42  28  57 W9        29.57S
STORM LAKE *   PTCLDY    41  28  60 SW10      29.60S
$$

IAZ055>058-069>071-079>083-090>094-210200-
   SOUTHWEST IOWA

CITY           SKY/WX    TMP DP  RH WIND       PRES   REMARKS
ATLANTIC *     PTCLDY    46  32  57 SW9       29.65S
AUDUBON *      CLOUDY    48  28  46 SW7       29.64F
CLARINDA *       N/A     46  30  53 S5          N/A
COUNCIL BLFS * PTCLDY    52  28  40 SW12      29.64F
CRESTON *      CLOUDY    45  30  57 S12       29.68S
HARLAN  *      PTCLDY    46  30  53 S6        29.67F
LAMONI         CLOUDY    52  30  43 SW14      29.68R
RED OAK *      PTCLDY    43  28  56 SW3       29.67S
SHENANDOAH *   CLEAR     48  28  46 S10       29.68R
$$

IAZ047>049-059>061-072>074-084-210200-
   CENTRAL IOWA

CITY           SKY/WX    TMP DP  RH WIND       PRES   REMARKS
AMES           CLOUDY    49  34  56 SW10      29.63R
ANKENY *       CLOUDY    55  30  38 SW10G17   29.64F
BOONE *        CLOUDY    52  30  43 SW12      29.61F
CHARITON *     CLOUDY    54  30  40 SW14G20   29.67R
DES MOINES     CLOUDY    54  29  38 SW13      29.65R
GRINNELL*      CLOUDY    53  30  42 SW14G20   29.66R
KNOXVILLE *    CLOUDY    55  28  35 SW12G21   29.65R
MARSHALLTOWN   CLOUDY    52  30  43 SW13      29.62R
NEWTON *       CLOUDY    52  30  43 SW14      29.64S
PELLA *        CLOUDY    55  28  35 SW8G21    29.67R
PERRY *          N/A     48  28  46 SW10      29.64R
$$

IAZ004>006-015-016-023>025-035-036-210200-
   NORTH CENTRAL IOWA

CITY           SKY/WX    TMP DP  RH WIND       PRES   REMARKS
ALGONA *       CLOUDY    39  32  75 S10       29.56F WCI  32
CLARION *      MOCLDY    41  34  75 S9        29.59S
ESTHERVILLE    CLOUDY    43  30  60 SW15      29.55S
FORT DODGE *   CLOUDY    46  29  51 SW10      29.60S
MASON CITY     PTCLDY    47  28  47 SW15      29.57S
FOREST CITY *    N/A     41  30  65 SW7       29.56F
WEBSTER CITY * CLOUDY    46  30  53 SW12      29.58F
IOWA FALLS *     N/A     47  33  57 SW9       29.61F
$$

IAZ007>011-017>019-026>030-037>042-050>054-066-210200-
   NORTHEAST IOWA

CITY           SKY/WX    TMP DP  RH WIND       PRES   REMARKS
CEDAR RAPIDS   CLOUDY    50  31  48 SW12      29.65R
CHARLES CITY * CLOUDY    48  30  49 SW9       29.58S
CLINTON *      CLOUDY    46  33  60 S13       29.69S
DECORAH *      CLOUDY    50  32  50 SW12G18   29.54F
DUBUQUE        CLOUDY    49  31  49 SW17      29.63S
MONTICELLO *   CLOUDY    50  32  50 S12       29.64R
OELWEIN *      CLOUDY    48  32  53 SW12      29.61S
WATERLOO       CLOUDY    50  30  46 SW13      29.60S
$$

IAZ064-065-067-068-078-210200-
   EAST CENTRAL IOWA

CITY           SKY/WX    TMP DP  RH WIND       PRES   REMARKS
DAVENPORT      CLOUDY    51  31  46 S14       29.71F
IOWA CITY      CLOUDY    53  31  42 S9        29.69R
MT. PLEASANT * CLOUDY    50  31  47 S16       29.71F
MUSCATINE *    CLOUDY    50  32  50 S9        29.70F
QUAD CITIES    CLOUDY    52  32  46 S13G22    29.70S
$$

IAZ062-063-075>077-085>089-095>099-210200-
   SOUTHEAST IOWA

CITY           SKY/WX    TMP DP  RH WIND       PRES   REMARKS
BURLINGTON     CLOUDY    49  33  54 S8        29.73S
FAIRFIELD *    CLOUDY    54  28  37 S17G23    29.68F
FORT MADISON * CLOUDY    54  30  40 S10       29.73F
KEOKUK *       PTCLDY    54  28  37 S15       29.73F
OSKALOOSA *      N/A     50  31  48 SW12      29.67S
OTTUMWA        CLOUDY    53  29  39 S13       29.68S
WASHINGTON *   CLOUDY    52  30  43 SW15G24   29.69S
$$

ABBREVIATIONS USED IN REMARKS
   TC - TEMPERATURES IN CELSIUS
  WCI - WIND CHILL INDEX
   HX - HEAT INDEX
  VSB - VISIBILITY
$$





USA.gov is the U.S. government's official web portal to all federal, state and local government web resources and services.